Tracking 19969 objects as of 12-Nov-2019
Live streaming from Space Station
objects crossing your sky now
Track the group of recently launched Starlink satellites

FLOCK 4A 5

Track FLOCK 4A 5 now!
10-day predictions
FLOCK 4A 5 is classified as:


NORAD ID: 44095
Int'l Code: 2019-018T
Perigee: 498.4 km
Apogee: 512.6 km
Inclination: 97.4 °
Period: 94.6 minutes
Semi major axis: 6876 km
RCS: Unknown
Launch date: April 1, 2019
Source: United States (US)
Launch site: SRIHARIKOTA (SRI)
aabbcc
Your satellite tracking list
Your tracking list is empty




NASA's NSSDC Master Catalog

Two Line Element Set (TLE):
1 44095U 19018T   19316.81855501  .00000942  00000-0  43704-4 0  9991
2 44095  97.4406  15.4169 0010339 214.5283 145.5282 15.22472250 34296
Source of the keplerian elements: AFSPC